Regional Weather Roundup
Issued by NWS Charleston, WV

Home | Current Version | Previous Version | Graphics & Text | Print | Product List | Glossary On
Versions: 1 2 3 4 5 6 7 8 9 10 11 12 13 14 15 16 17 18 19 20 21 22 23 24 25 26 27 28 29 30 31 32 33 34 35 36 37 38 39 40 41 42 43 44 45 46 47 48 49 50
000
ASUS41 KRLX 251810
RWRRLX
West Virginia Regional Weather Roundup
National Weather Service Charleston WV
200 PM EDT THU MAY 25 2017

Note: "fair" indicates few or no clouds below 12,000 feet with no
significant weather and/or obstructions to visibility.

WVZ003-251900-
Northern Panhandle of West Virginia

CITY           SKY/WX    TMP DP  RH WIND       PRES   REMARKS
WHEELING       PTSUNNY   63  54  72 SW9G21    29.49R
$$

WVZ009-251900-
Northwest West Virginia

CITY           SKY/WX    TMP DP  RH WIND       PRES   REMARKS
PARKERSBURG    LGT RAIN  58  54  86 SW8       29.53S FOG
$$

WVZ006-251900-
Western West Virginia

CITY           SKY/WX    TMP DP  RH WIND       PRES   REMARKS
HUNTINGTON     RAIN      57  54  89 S10       29.49F FOG
$$

WVZ015-251900-
West Central West Virginia

CITY           SKY/WX    TMP DP  RH WIND       PRES   REMARKS
CHARLESTON     CLOUDY    60  52  74 S12G18    29.53S
$$

WVZ022-031-251900-
North Central West Virginia

CITY           SKY/WX    TMP DP  RH WIND       PRES   REMARKS
CLARKSBURG     PTSUNNY   66  52  60 SW13G24   29.50F
MORGANTOWN     MOSUNNY   65  53  65 SW9       29.51F
$$

WVZ025-035-042-045-251900-
Southern West Virginia

CITY           SKY/WX    TMP DP  RH WIND       PRES   REMARKS
BECKLEY        CLOUDY    53  49  86 SW8       29.59R
LOGAN          LGT RAIN  54  54 100 CALM      29.56F
BLUEFIELD      CLOUDY    52  46  80 W17G24    29.61R
LEWISBURG      CLOUDY    58  48  68 W9        29.56S
$$

WVZ047-251900-
Northern Mountains of West Virginia

CITY           SKY/WX    TMP DP  RH WIND       PRES   REMARKS
ELKINS         PTSUNNY   64  51  62 W10G17    29.52F
$$

WVZ052-251900-
Eastern Panhandle of West Virginia

CITY           SKY/WX    TMP DP  RH WIND       PRES   REMARKS
MARTINSBURG    CLOUDY    66  56  70 CALM      29.49F
PETERSBURG     CLOUDY    66  60  80 CALM      29.50F
$$



USA.gov is the U.S. government's official web portal to all federal, state and local government web resources and services.